Time,TemperatureF,DewpointF,PressureIn,WindDirection,WindDirectionDegrees,WindSpeedMPH,WindSpeedGustMPH,Humidity,HourlyPrecipIn,Conditions,Clouds,dailyrainin,SoftwareType,DateUTC
2013-02-04 00:00:00,32.0,21.2,29.93,East,90,1.8,4.0,64,0.00,,,0.00,WUHU216HW,2013-02-04 05:00:00,
2013-02-04 00:02:00,32.0,21.2,29.93,East,90,1.8,4.0,64,0.00,,,0.00,WUHU216HW,2013-02-04 05:02:00,
2013-02-04 00:03:00,32.0,21.2,29.93,SSE,158,2.2,4.0,64,0.00,,,0.00,WUHU216HW,2013-02-04 05:03:00,
2013-02-04 00:08:00,31.9,21.1,29.93,ENE,68,1.6,2.9,64,0.00,,,0.00,WUHU216HW,2013-02-04 05:08:00,
2013-02-04 00:13:00,31.7,20.5,29.94,ENE,68,0.2,2.2,63,0.00,,,0.00,WUHU216HW,2013-02-04 05:13:00,
2013-02-04 00:18:00,31.7,20.5,29.94,ENE,68,0.2,1.8,63,0.00,,,0.00,WUHU216HW,2013-02-04 05:18:00,
2013-02-04 00:42:00,31.0,19.4,29.95,ESE,113,1.1,1.1,62,0.00,,,0.00,WUHU216HW,2013-02-04 05:42:00,
2013-02-04 00:47:00,30.6,19.4,29.94,SW,225,0.0,1.1,63,0.00,,,0.00,WUHU216HW,2013-02-04 05:47:00,
2013-02-04 00:52:00,30.6,19.1,29.94,South,180,1.1,2.9,62,0.00,,,0.00,WUHU216HW,2013-02-04 05:52:00,
2013-02-04 00:57:00,30.6,19.1,29.95,ENE,68,1.8,6.3,62,0.00,,,0.00,WUHU216HW,2013-02-04 05:57:00,
2013-02-04 01:02:00,30.6,18.7,29.94,SSW,203,1.8,6.3,61,0.00,,,0.00,WUHU216HW,2013-02-04 06:02:00,
2013-02-04 01:07:00,30.6,18.7,29.95,ENE,68,1.1,3.6,61,0.00,,,0.00,WUHU216HW,2013-02-04 06:07:00,
2013-02-04 01:13:00,30.4,18.5,29.95,ESE,113,2.9,3.6,61,0.00,,,0.00,WUHU216HW,2013-02-04 06:13:00,
2013-02-04 01:18:00,30.4,18.2,29.94,WSW,248,1.6,3.6,60,0.00,,,0.00,WUHU216HW,2013-02-04 06:18:00,
2013-02-04 01:23:00,30.2,18.0,29.95,ENE,68,4.7,4.7,60,0.00,,,0.00,WUHU216HW,2013-02-04 06:23:00,
2013-02-04 01:28:00,30.2,17.2,29.95,ENE,68,6.5,6.5,58,0.00,,,0.00,WUHU216HW,2013-02-04 06:28:00,
2013-02-04 01:33:00,30.2,16.7,29.95,SE,135,2.5,6.5,57,0.00,,,0.00,WUHU216HW,2013-02-04 06:33:00,
2013-02-04 01:38:00,29.9,16.5,29.96,East,90,2.9,4.7,57,0.00,,,0.00,WUHU216HW,2013-02-04 06:38:00,
2013-02-04 01:43:00,29.9,16.5,29.96,SW,225,1.8,4.3,57,0.00,,,0.00,WUHU216HW,2013-02-04 06:43:00,
2013-02-04 01:48:00,29.7,16.7,29.96,West,270,4.0,4.3,58,0.00,,,0.00,WUHU216HW,2013-02-04 06:48:00,
2013-02-04 01:53:00,29.5,16.1,29.97,SE,135,1.1,4.0,57,0.00,,,0.00,WUHU216HW,2013-02-04 06:53:00,
2013-02-04 01:58:00,29.5,15.7,29.97,SSW,203,1.3,4.3,56,0.00,,,0.00,WUHU216HW,2013-02-04 06:58:00,
2013-02-04 02:03:00,29.3,15.6,29.96,North,0,4.3,4.3,56,0.00,,,0.00,WUHU216HW,2013-02-04 07:03:00,
2013-02-04 02:08:00,29.2,15.4,29.97,ESE,113,5.4,5.8,56,0.00,,,0.00,WUHU216HW,2013-02-04 07:08:00,
2013-02-04 02:14:00,29.2,15.4,29.97,SW,225,2.0,6.7,56,0.00,,,0.00,WUHU216HW,2013-02-04 07:14:00,
2013-02-04 02:19:00,29.0,15.2,29.97,East,90,1.8,6.7,56,0.00,,,0.00,WUHU216HW,2013-02-04 07:19:00,
2013-02-04 02:24:00,28.8,15.0,29.97,SE,135,1.1,3.4,56,0.00,,,0.00,WUHU216HW,2013-02-04 07:24:00,
2013-02-04 02:29:00,28.8,15.0,29.97,ESE,113,5.4,5.4,56,0.00,,,0.00,WUHU216HW,2013-02-04 07:29:00,
2013-02-04 02:34:00,28.6,14.9,29.97,East,90,6.3,6.3,56,0.00,,,0.00,WUHU216HW,2013-02-04 07:34:00,
2013-02-04 02:39:00,28.6,14.9,29.97,NE,45,1.1,6.3,56,0.00,,,0.00,WUHU216HW,2013-02-04 07:39:00,
2013-02-04 02:44:00,28.4,14.8,29.97,SE,135,2.9,6.5,56,0.00,,,0.00,WUHU216HW,2013-02-04 07:44:00,
2013-02-04 02:49:00,28.4,14.8,29.98,NE,45,0.0,6.5,56,0.00,,,0.00,WUHU216HW,2013-02-04 07:49:00,
2013-02-04 02:54:00,28.4,14.8,29.98,ESE,113,0.9,2.2,56,0.00,,,0.00,WUHU216HW,2013-02-04 07:54:00,
2013-02-04 02:59:00,28.3,14.9,29.98,ESE,113,0.7,4.7,57,0.00,,,0.00,WUHU216HW,2013-02-04 07:59:00,
2013-02-04 03:04:00,28.3,14.6,29.99,SSE,158,0.9,4.7,56,0.00,,,0.00,WUHU216HW,2013-02-04 08:04:00,
2013-02-04 03:09:00,28.3,14.9,29.99,NE,45,4.3,4.3,57,0.00,,,0.00,WUHU216HW,2013-02-04 08:09:00,
2013-02-04 03:15:00,28.3,14.6,29.99,SW,225,0.4,4.3,56,0.00,,,0.00,WUHU216HW,2013-02-04 08:15:00,
2013-02-04 03:20:00,28.1,14.8,29.99,North,0,1.1,2.2,57,0.00,,,0.00,WUHU216HW,2013-02-04 08:20:00,
2013-02-04 03:25:00,28.1,14.8,29.99,South,180,0.9,3.4,57,0.00,,,0.00,WUHU216HW,2013-02-04 08:25:00,
2013-02-04 03:30:00,27.9,14.2,29.99,ESE,113,2.2,3.4,56,0.00,,,0.00,WUHU216HW,2013-02-04 08:30:00,
2013-02-04 03:35:00,27.7,14.1,29.99,ESE,113,4.7,4.7,56,0.00,,,0.00,WUHU216HW,2013-02-04 08:35:00,
2013-02-04 03:40:00,27.7,14.1,29.99,ENE,68,2.5,4.7,56,0.00,,,0.00,WUHU216HW,2013-02-04 08:40:00,
2013-02-04 03:45:00,27.7,14.1,29.99,South,180,4.9,4.9,56,0.00,,,0.00,WUHU216HW,2013-02-04 08:45:00,
2013-02-04 03:50:00,27.5,13.9,29.99,East,90,1.8,4.9,56,0.00,,,0.00,WUHU216HW,2013-02-04 08:50:00,
2013-02-04 03:55:00,27.5,13.9,29.99,East,90,1.6,2.7,56,0.00,,,0.00,WUHU216HW,2013-02-04 08:55:00,
2013-02-04 04:00:00,27.5,13.9,29.99,SW,225,0.9,2.7,56,0.00,,,0.00,WUHU216HW,2013-02-04 09:00:00,
2013-02-04 04:06:00,27.4,14.0,29.99,NNE,23,0.4,2.5,57,0.00,,,0.00,WUHU216HW,2013-02-04 09:06:00,
2013-02-04 04:11:00,27.4,14.0,30.00,NE,45,0.7,2.7,57,0.00,,,0.00,WUHU216HW,2013-02-04 09:11:00,
2013-02-04 04:16:00,27.4,14.0,30.00,East,90,0.4,2.7,57,0.00,,,0.00,WUHU216HW,2013-02-04 09:16:00,
2013-02-04 04:21:00,27.2,13.9,30.00,SE,135,0.0,1.8,57,0.00,,,0.00,WUHU216HW,2013-02-04 09:21:00,
2013-02-04 04:26:00,27.2,14.3,30.00,North,0,0.0,0.9,58,0.00,,,0.00,WUHU216HW,2013-02-04 09:26:00,
2013-02-04 04:31:00,27.0,14.1,30.00,NNE,23,0.7,0.7,58,0.00,,,0.00,WUHU216HW,2013-02-04 09:31:00,
2013-02-04 04:36:00,27.0,14.1,30.00,North,0,1.1,1.1,58,0.00,,,0.00,WUHU216HW,2013-02-04 09:36:00,
2013-02-04 04:41:00,27.0,14.1,30.00,ESE,113,0.0,1.1,58,0.00,,,0.00,WUHU216HW,2013-02-04 09:41:00,
2013-02-04 04:46:00,27.0,14.1,30.01,NE,45,1.1,1.1,58,0.00,,,0.00,WUHU216HW,2013-02-04 09:46:00,
2013-02-04 04:51:00,27.0,14.1,30.01,WSW,248,0.0,2.0,58,0.00,,,0.00,WUHU216HW,2013-02-04 09:51:00,
2013-02-04 04:56:00,27.0,14.1,30.00,SE,135,1.1,2.0,58,0.00,,,0.00,WUHU216HW,2013-02-04 09:56:00,
2013-02-04 05:01:00,27.0,14.1,30.00,East,90,0.2,3.1,58,0.00,,,0.00,WUHU216HW,2013-02-04 10:01:00,
2013-02-04 05:06:00,27.0,14.1,30.00,ESE,113,0.2,3.1,58,0.00,,,0.00,WUHU216HW,2013-02-04 10:06:00,
2013-02-04 05:11:00,26.8,14.3,30.01,NNW,338,0.0,1.3,59,0.00,,,0.00,WUHU216HW,2013-02-04 10:11:00,
2013-02-04 05:17:00,26.6,13.8,30.00,South,180,0.4,1.3,58,0.00,,,0.00,WUHU216HW,2013-02-04 10:17:00,
2013-02-04 05:22:00,26.5,14.1,30.01,WNW,293,0.9,2.0,59,0.00,,,0.00,WUHU216HW,2013-02-04 10:22:00,
2013-02-04 05:27:00,26.5,14.1,30.01,ESE,113,0.4,2.0,59,0.00,,,0.00,WUHU216HW,2013-02-04 10:27:00,
2013-02-04 05:32:00,26.3,13.9,30.01,East,90,0.4,0.4,59,0.00,,,0.00,WUHU216HW,2013-02-04 10:32:00,
2013-02-04 05:37:00,26.1,13.7,30.02,SSE,158,0.4,0.7,59,0.00,,,0.00,WUHU216HW,2013-02-04 10:37:00,
2013-02-04 05:42:00,26.3,13.9,30.02,NNW,338,0.4,0.9,59,0.00,,,0.00,WUHU216HW,2013-02-04 10:42:00,
2013-02-04 05:47:00,26.3,13.9,30.02,SE,135,0.4,1.1,59,0.00,,,0.00,WUHU216HW,2013-02-04 10:47:00,
2013-02-04 05:52:00,26.1,13.7,30.02,SSE,158,0.7,1.1,59,0.00,,,0.00,WUHU216HW,2013-02-04 10:52:00,
2013-02-04 05:57:00,26.1,13.7,30.02,East,90,0.7,0.9,59,0.00,,,0.00,WUHU216HW,2013-02-04 10:57:00,
2013-02-04 06:02:00,25.9,14.0,30.03,ESE,113,0.0,0.9,60,0.00,,,0.00,WUHU216HW,2013-02-04 11:02:00,
2013-02-04 06:07:00,25.9,14.0,30.03,ENE,68,0.7,1.1,60,0.00,,,0.00,WUHU216HW,2013-02-04 11:07:00,
2013-02-04 06:12:00,25.9,14.0,30.04,ESE,113,0.0,1.1,60,0.00,,,0.00,WUHU216HW,2013-02-04 11:12:00,
2013-02-04 06:17:00,25.7,13.8,30.04,South,180,0.2,1.1,60,0.00,,,0.00,WUHU216HW,2013-02-04 11:17:00,
2013-02-04 06:22:00,25.6,13.6,30.04,SW,225,0.0,0.9,60,0.00,,,0.00,WUHU216HW,2013-02-04 11:22:00,
2013-02-04 06:27:00,25.4,13.4,30.04,East,90,0.0,0.7,60,0.00,,,0.00,WUHU216HW,2013-02-04 11:27:00,
2013-02-04 06:32:00,25.2,13.6,30.05,East,90,0.0,0.7,61,0.00,,,0.00,WUHU216HW,2013-02-04 11:32:00,
2013-02-04 06:37:00,25.2,13.6,30.05,East,90,0.0,0.0,61,0.00,,,0.00,WUHU216HW,2013-02-04 11:37:00,
2013-02-04 06:42:00,24.8,13.3,30.05,East,90,0.0,0.0,61,0.00,,,0.00,WUHU216HW,2013-02-04 11:42:00,
2013-02-04 06:48:00,24.7,13.2,30.05,East,90,0.0,0.0,61,0.00,,,0.00,WUHU216HW,2013-02-04 11:48:00,
2013-02-04 06:53:00,24.5,13.0,30.05,ENE,68,0.0,0.4,61,0.00,,,0.00,WUHU216HW,2013-02-04 11:53:00,
2013-02-04 06:58:00,24.7,13.5,30.06,East,90,0.0,0.4,62,0.00,,,0.00,WUHU216HW,2013-02-04 11:58:00,
2013-02-04 07:03:00,24.7,13.5,30.06,East,90,0.0,0.4,62,0.00,,,0.00,WUHU216HW,2013-02-04 12:03:00,
2013-02-04 07:08:00,24.5,13.3,30.05,East,90,1.1,1.1,62,0.00,,,0.00,WUHU216HW,2013-02-04 12:08:00,
2013-02-04 07:13:00,24.7,13.5,30.05,North,0,0.0,1.3,62,0.00,,,0.00,WUHU216HW,2013-02-04 12:13:00,
2013-02-04 07:18:00,24.8,13.7,30.05,East,90,0.2,1.3,62,0.00,,,0.00,WUHU216HW,2013-02-04 12:18:00,
2013-02-04 07:23:00,25.0,13.8,30.06,North,0,0.4,1.3,62,0.00,,,0.00,WUHU216HW,2013-02-04 12:23:00,
2013-02-04 07:28:00,25.4,14.1,30.07,NNE,23,0.0,1.6,62,0.00,,,0.00,WUHU216HW,2013-02-04 12:28:00,
2013-02-04 07:33:00,25.4,14.1,30.07,North,0,0.0,1.6,62,0.00,,,0.00,WUHU216HW,2013-02-04 12:33:00,
2013-02-04 07:38:00,25.4,14.1,30.07,NW,315,0.0,0.0,62,0.00,,,0.00,WUHU216HW,2013-02-04 12:38:00,
2013-02-04 07:43:00,25.4,14.1,30.08,NW,315,0.0,0.0,62,0.00,,,0.00,WUHU216HW,2013-02-04 12:43:00,
2013-02-04 07:48:00,25.4,14.1,30.07,WNW,293,0.0,0.0,62,0.00,,,0.00,WUHU216HW,2013-02-04 12:48:00,
2013-02-04 07:53:00,25.4,14.5,30.07,WNW,293,0.0,0.0,63,0.00,,,0.00,WUHU216HW,2013-02-04 12:53:00,
2013-02-04 07:58:00,25.4,14.5,30.07,SSW,203,0.4,0.4,63,0.00,,,0.00,WUHU216HW,2013-02-04 12:58:00,
2013-02-04 08:03:00,25.7,14.9,30.07,ENE,68,0.0,0.4,63,0.00,,,0.00,WUHU216HW,2013-02-04 13:03:00,
2013-02-04 08:08:00,25.9,15.0,30.08,NNE,23,0.0,0.4,63,0.00,,,0.00,WUHU216HW,2013-02-04 13:08:00,
2013-02-04 08:13:00,26.1,15.1,30.08,NE,45,0.0,0.4,63,0.00,,,0.00,WUHU216HW,2013-02-04 13:13:00,
2013-02-04 08:18:00,26.3,15.3,30.09,East,90,1.1,1.1,63,0.00,,,0.00,WUHU216HW,2013-02-04 13:18:00,
2013-02-04 08:24:00,26.6,15.3,30.09,NNW,338,0.0,1.1,62,0.00,,,0.00,WUHU216HW,2013-02-04 13:24:00,
2013-02-04 08:29:00,27.0,15.7,30.08,ESE,113,0.4,0.7,62,0.00,,,0.00,WUHU216HW,2013-02-04 13:29:00,
2013-02-04 08:34:00,27.2,15.8,30.08,SSE,158,0.4,1.3,62,0.00,,,0.00,WUHU216HW,2013-02-04 13:34:00,
2013-02-04 08:39:00,27.7,16.4,30.08,ENE,68,0.4,1.3,62,0.00,,,0.00,WUHU216HW,2013-02-04 13:39:00,
2013-02-04 08:44:00,28.1,16.7,30.08,SSE,158,0.2,1.3,62,0.00,,,0.00,WUHU216HW,2013-02-04 13:44:00,
2013-02-04 08:49:00,28.4,16.7,30.08,West,270,0.9,2.0,61,0.00,,,0.00,WUHU216HW,2013-02-04 13:49:00,
2013-02-04 08:54:00,28.8,17.1,30.08,NNW,338,0.7,2.0,61,0.00,,,0.00,WUHU216HW,2013-02-04 13:54:00,
2013-02-04 08:59:00,29.2,17.4,30.08,ESE,113,0.4,0.7,61,0.00,,,0.00,WUHU216HW,2013-02-04 13:59:00,
2013-02-04 09:04:00,29.2,17.0,30.08,NNE,23,0.2,1.1,60,0.00,,,0.00,WUHU216HW,2013-02-04 14:04:00,
2013-02-04 09:09:00,29.5,17.4,30.08,North,0,1.1,1.1,60,0.00,,,0.00,WUHU216HW,2013-02-04 14:09:00,
2013-02-04 09:15:00,29.7,17.6,30.08,South,180,1.8,3.6,60,0.00,,,0.00,WUHU216HW,2013-02-04 14:15:00,
2013-02-04 09:20:00,29.9,17.3,30.08,NNE,23,0.4,1.8,59,0.00,,,0.00,WUHU216HW,2013-02-04 14:20:00,
2013-02-04 09:25:00,30.2,17.6,30.09,ESE,113,0.4,0.9,59,0.00,,,0.00,WUHU216HW,2013-02-04 14:25:00,
2013-02-04 09:30:00,30.4,17.7,30.09,ESE,113,1.1,1.6,59,0.00,,,0.00,WUHU216HW,2013-02-04 14:30:00,
2013-02-04 09:35:00,30.6,17.6,30.09,ESE,113,0.4,2.2,58,0.00,,,0.00,WUHU216HW,2013-02-04 14:35:00,
2013-02-04 09:40:00,31.0,17.9,30.09,ENE,68,1.1,3.4,58,0.00,,,0.00,WUHU216HW,2013-02-04 14:40:00,
2013-02-04 09:45:00,31.1,18.1,30.09,North,0,0.2,3.4,58,0.00,,,0.00,WUHU216HW,2013-02-04 14:45:00,
2013-02-04 09:51:00,31.3,17.8,30.09,ESE,113,1.3,2.5,57,0.00,,,0.00,WUHU216HW,2013-02-04 14:51:00,
2013-02-04 09:56:00,31.3,17.8,30.09,South,180,1.8,2.5,57,0.00,,,0.00,WUHU216HW,2013-02-04 14:56:00,
2013-02-04 10:01:00,31.5,17.6,30.08,ENE,68,1.3,2.2,56,0.00,,,0.00,WUHU216HW,2013-02-04 15:01:00,
2013-02-04 10:06:00,31.7,17.7,30.09,ENE,68,1.1,1.8,56,0.00,,,0.00,WUHU216HW,2013-02-04 15:06:00,
2013-02-04 10:11:00,31.7,17.7,30.08,NNW,338,0.0,1.6,56,0.00,,,0.00,WUHU216HW,2013-02-04 15:11:00,
2013-02-04 10:16:00,32.0,18.1,30.08,East,90,0.2,2.9,56,0.00,,,0.00,WUHU216HW,2013-02-04 15:16:00,
2013-02-04 10:21:00,32.4,18.4,30.08,East,90,0.4,2.9,56,0.00,,,0.00,WUHU216HW,2013-02-04 15:21:00,
2013-02-04 10:26:00,32.8,18.7,30.08,East,90,1.8,1.8,56,0.00,,,0.00,WUHU216HW,2013-02-04 15:26:00,
2013-02-04 10:31:00,32.8,18.7,30.08,ENE,68,0.7,2.2,56,0.00,,,0.00,WUHU216HW,2013-02-04 15:31:00,
2013-02-04 10:36:00,32.9,18.9,30.08,NE,45,0.4,3.1,56,0.00,,,0.00,WUHU216HW,2013-02-04 15:36:00,
2013-02-04 10:41:00,32.9,18.9,30.07,NNE,23,0.7,3.1,56,0.00,,,0.00,WUHU216HW,2013-02-04 15:41:00,
2013-02-04 10:46:00,33.3,18.8,30.07,NNW,338,1.1,2.7,55,0.00,,,0.00,WUHU216HW,2013-02-04 15:46:00,
2013-02-04 10:51:00,33.5,18.9,30.07,NNE,23,1.1,3.4,55,0.00,,,0.00,WUHU216HW,2013-02-04 15:51:00,
2013-02-04 10:57:00,33.5,18.9,30.07,NE,45,0.4,3.4,55,0.00,,,0.00,WUHU216HW,2013-02-04 15:57:00,
2013-02-04 11:02:00,33.8,19.3,30.07,North,0,0.4,1.6,55,0.00,,,0.00,WUHU216HW,2013-02-04 16:02:00,
2013-02-04 11:07:00,33.8,18.0,30.06,NNW,338,1.8,4.7,52,0.00,,,0.00,WUHU216HW,2013-02-04 16:07:00,
2013-02-04 11:12:00,33.8,18.8,30.06,WSW,248,0.7,4.7,54,0.00,,,0.00,WUHU216HW,2013-02-04 16:12:00,
2013-02-04 11:17:00,34.0,19.0,30.06,North,0,3.4,3.4,54,0.00,,,0.00,WUHU216HW,2013-02-04 16:17:00,
2013-02-04 11:22:00,34.2,18.4,30.05,NNW,338,0.4,3.4,52,0.00,,,0.00,WUHU216HW,2013-02-04 16:22:00,
2013-02-04 11:27:00,34.2,19.2,30.05,North,0,2.9,2.9,54,0.00,,,0.00,WUHU216HW,2013-02-04 16:27:00,
2013-02-04 11:32:00,34.6,19.5,30.05,North,0,0.9,2.9,54,0.00,,,0.00,WUHU216HW,2013-02-04 16:32:00,
2013-02-04 11:37:00,34.9,19.9,30.05,NNW,338,1.1,2.9,54,0.00,,,0.00,WUHU216HW,2013-02-04 16:37:00,
2013-02-04 11:42:00,34.9,19.9,30.05,NNW,338,1.1,6.9,54,0.00,,,0.00,WUHU216HW,2013-02-04 16:42:00,
2013-02-04 11:47:00,34.9,19.4,30.05,West,270,3.6,6.9,53,0.00,,,0.00,WUHU216HW,2013-02-04 16:47:00,
2013-02-04 11:52:00,35.1,20.1,30.05,NE,45,0.9,4.0,54,0.00,,,0.00,WUHU216HW,2013-02-04 16:52:00,
2013-02-04 11:57:00,35.3,19.8,30.05,East,90,0.0,4.0,53,0.00,,,0.00,WUHU216HW,2013-02-04 16:57:00,
2013-02-04 12:03:00,35.5,18.7,30.04,NNW,338,2.2,3.4,50,0.00,,,0.00,WUHU216HW,2013-02-04 17:03:00,
2013-02-04 12:08:00,35.3,19.0,30.04,NNE,23,2.5,3.4,51,0.00,,,0.00,WUHU216HW,2013-02-04 17:08:00,
2013-02-04 12:13:00,35.3,19.5,30.04,NNW,338,1.1,2.7,52,0.00,,,0.00,WUHU216HW,2013-02-04 17:13:00,
2013-02-04 12:18:00,35.1,19.3,30.04,ESE,113,0.2,2.7,52,0.00,,,0.00,WUHU216HW,2013-02-04 17:18:00,
2013-02-04 12:23:00,35.5,19.6,30.02,NW,315,1.6,3.6,52,0.00,,,0.00,WUHU216HW,2013-02-04 17:23:00,
2013-02-04 12:28:00,35.5,19.6,30.02,NW,315,2.5,3.6,52,0.00,,,0.00,WUHU216HW,2013-02-04 17:28:00,
2013-02-04 12:33:00,35.6,19.8,30.02,NNW,338,0.7,2.5,52,0.00,,,0.00,WUHU216HW,2013-02-04 17:33:00,
2013-02-04 12:38:00,36.0,19.6,30.02,NNW,338,0.4,3.6,51,0.00,,,0.00,WUHU216HW,2013-02-04 17:38:00,
2013-02-04 12:43:00,36.0,19.3,30.02,East,90,1.8,3.6,50,0.00,,,0.00,WUHU216HW,2013-02-04 17:43:00,
2013-02-04 12:48:00,36.2,20.3,30.01,NW,315,1.1,2.5,52,0.00,,,0.00,WUHU216HW,2013-02-04 17:48:00,
2013-02-04 12:53:00,36.0,20.1,30.01,NW,315,2.7,2.7,52,0.00,,,0.00,WUHU216HW,2013-02-04 17:53:00,
2013-02-04 12:58:00,36.2,20.3,30.01,NNW,338,4.0,6.3,52,0.00,,,0.00,WUHU216HW,2013-02-04 17:58:00,
2013-02-04 13:03:00,35.8,19.9,30.01,North,0,2.2,6.3,52,0.00,,,0.00,WUHU216HW,2013-02-04 18:03:00,
2013-02-04 13:08:00,35.6,19.4,30.01,NW,315,2.5,4.0,51,0.00,,,0.00,WUHU216HW,2013-02-04 18:08:00,
2013-02-04 13:13:00,35.6,19.8,30.01,North,0,0.7,4.7,52,0.00,,,0.00,WUHU216HW,2013-02-04 18:13:00,
2013-02-04 13:18:00,35.6,19.8,30.00,North,0,5.4,6.9,52,0.00,,,0.00,WUHU216HW,2013-02-04 18:18:00,
2013-02-04 13:23:00,35.5,19.6,30.00,NNW,338,2.9,6.9,52,0.00,,,0.00,WUHU216HW,2013-02-04 18:23:00,
2013-02-04 13:28:00,35.6,19.8,30.00,SW,225,0.7,5.4,52,0.00,,,0.00,WUHU216HW,2013-02-04 18:28:00,
2013-02-04 13:33:00,35.6,19.8,30.00,NW,315,0.9,4.9,52,0.00,,,0.00,WUHU216HW,2013-02-04 18:33:00,
2013-02-04 13:38:00,35.6,19.8,30.00,North,0,0.7,3.4,52,0.00,,,0.00,WUHU216HW,2013-02-04 18:38:00,
2013-02-04 13:44:00,35.8,19.9,29.99,WSW,248,2.0,5.6,52,0.00,,,0.00,WUHU216HW,2013-02-04 18:44:00,
2013-02-04 13:49:00,35.6,19.8,29.99,NW,315,2.7,5.6,52,0.00,,,0.00,WUHU216HW,2013-02-04 18:49:00,
2013-02-04 13:54:00,35.5,20.0,29.99,North,0,2.5,2.7,53,0.00,,,0.00,WUHU216HW,2013-02-04 18:54:00,
2013-02-04 13:59:00,35.6,20.2,29.99,North,0,1.3,3.4,53,0.00,,,0.00,WUHU216HW,2013-02-04 18:59:00,
2013-02-04 14:04:00,35.6,20.2,29.99,SSW,203,1.1,3.8,53,0.00,,,0.00,WUHU216HW,2013-02-04 19:04:00,
2013-02-04 14:09:00,35.6,20.2,29.98,NNW,338,4.9,5.4,53,0.00,,,0.00,WUHU216HW,2013-02-04 19:09:00,
2013-02-04 14:14:00,35.8,20.8,29.98,NNW,338,2.0,5.4,54,0.00,,,0.00,WUHU216HW,2013-02-04 19:14:00,
2013-02-04 14:19:00,35.8,20.3,29.98,ENE,68,1.3,2.5,53,0.00,,,0.00,WUHU216HW,2013-02-04 19:19:00,
2013-02-04 14:24:00,35.6,20.2,29.98,NNW,338,4.3,5.4,53,0.00,,,0.00,WUHU216HW,2013-02-04 19:24:00,
2013-02-04 14:29:00,35.6,20.6,29.97,SSE,158,0.0,5.4,54,0.00,,,0.00,WUHU216HW,2013-02-04 19:29:00,
2013-02-04 14:34:00,36.0,21.0,29.97,NW,315,1.1,2.0,54,0.00,,,0.00,WUHU216HW,2013-02-04 19:34:00,
2013-02-04 14:39:00,36.0,21.0,29.97,NW,315,4.7,5.1,54,0.00,,,0.00,WUHU216HW,2013-02-04 19:39:00,
2013-02-04 14:44:00,35.8,20.8,29.97,NNE,23,3.6,5.1,54,0.00,,,0.00,WUHU216HW,2013-02-04 19:44:00,
2013-02-04 14:49:00,35.6,20.6,29.97,North,0,0.0,4.7,54,0.00,,,0.00,WUHU216HW,2013-02-04 19:49:00,
2013-02-04 14:54:00,35.6,20.6,29.97,NNW,338,0.9,4.5,54,0.00,,,0.00,WUHU216HW,2013-02-04 19:54:00,
2013-02-04 14:59:00,35.8,20.8,29.97,NW,315,4.7,5.4,54,0.00,,,0.00,WUHU216HW,2013-02-04 19:59:00,
2013-02-04 15:04:00,35.8,21.3,29.97,WSW,248,1.1,5.4,55,0.00,,,0.00,WUHU216HW,2013-02-04 20:04:00,
2013-02-04 15:09:00,36.0,21.0,29.97,ESE,113,1.3,5.4,54,0.00,,,0.00,WUHU216HW,2013-02-04 20:09:00,
2013-02-04 15:14:00,36.0,21.4,29.97,NE,45,1.1,5.4,55,0.00,,,0.00,WUHU216HW,2013-02-04 20:14:00,
2013-02-04 15:19:00,36.4,21.2,29.97,NNW,338,3.8,3.8,54,0.00,,,0.00,WUHU216HW,2013-02-04 20:19:00,
2013-02-04 15:24:00,36.2,21.5,29.97,SSE,158,0.9,3.8,55,0.00,,,0.00,WUHU216HW,2013-02-04 20:24:00,
2013-02-04 15:29:00,36.0,21.4,29.96,ESE,113,2.5,4.5,55,0.00,,,0.00,WUHU216HW,2013-02-04 20:29:00,
2013-02-04 15:34:00,35.8,20.8,29.97,SW,225,2.5,4.5,54,0.00,,,0.00,WUHU216HW,2013-02-04 20:34:00,
2013-02-04 15:39:00,35.6,20.6,29.97,North,0,1.1,3.4,54,0.00,,,0.00,WUHU216HW,2013-02-04 20:39:00,
2013-02-04 15:44:00,35.5,20.9,29.97,WNW,293,0.4,3.8,55,0.00,,,0.00,WUHU216HW,2013-02-04 20:44:00,
2013-02-04 15:50:00,35.5,20.9,29.97,East,90,0.4,3.8,55,0.00,,,0.00,WUHU216HW,2013-02-04 20:50:00,
2013-02-04 15:55:00,35.6,21.1,29.97,NNW,338,0.2,2.5,55,0.00,,,0.00,WUHU216HW,2013-02-04 20:55:00,
2013-02-04 16:00:00,35.6,20.6,29.97,NNW,338,0.7,3.6,54,0.00,,,0.00,WUHU216HW,2013-02-04 21:00:00,
2013-02-04 16:05:00,35.6,20.6,29.96,WNW,293,0.2,3.6,54,0.00,,,0.00,WUHU216HW,2013-02-04 21:05:00,
2013-02-04 16:10:00,35.6,21.1,29.97,NNW,338,0.9,2.5,55,0.00,,,0.00,WUHU216HW,2013-02-04 21:10:00,
2013-02-04 16:15:00,36.0,21.4,29.97,East,90,0.2,2.2,55,0.00,,,0.00,WUHU216HW,2013-02-04 21:15:00,
2013-02-04 16:20:00,36.2,21.5,29.96,WNW,293,1.6,5.6,55,0.00,,,0.00,WUHU216HW,2013-02-04 21:20:00,
2013-02-04 16:25:00,36.4,21.7,29.96,NW,315,2.0,5.6,55,0.00,,,0.00,WUHU216HW,2013-02-04 21:25:00,
2013-02-04 16:30:00,36.2,21.2,29.96,NE,45,2.0,4.9,54,0.00,,,0.00,WUHU216HW,2013-02-04 21:30:00,
2013-02-04 16:35:00,36.0,21.0,29.96,NNW,338,3.4,3.4,54,0.00,,,0.00,WUHU216HW,2013-02-04 21:35:00,
2013-02-04 16:40:00,35.6,20.6,29.96,North,0,1.6,3.8,54,0.00,,,0.00,WUHU216HW,2013-02-04 21:40:00,
2013-02-04 16:46:00,35.6,21.1,29.96,North,0,0.2,3.8,55,0.00,,,0.00,WUHU216HW,2013-02-04 21:46:00,
2013-02-04 16:50:00,35.6,21.1,29.96,NNW,338,2.5,2.5,55,0.00,,,0.00,WUHU216HW,2013-02-04 21:50:00,
2013-02-04 16:56:00,35.5,20.9,29.95,NNW,338,0.0,2.5,55,0.00,,,0.00,WUHU216HW,2013-02-04 21:56:00,
2013-02-04 17:01:00,35.3,20.7,29.95,North,0,0.0,1.1,55,0.00,,,0.00,WUHU216HW,2013-02-04 22:01:00,
2013-02-04 17:06:00,35.1,20.5,29.95,NNW,338,0.0,0.7,55,0.00,,,0.00,WUHU216HW,2013-02-04 22:06:00,
2013-02-04 17:11:00,34.9,20.8,29.95,NNW,338,1.8,1.8,56,0.00,,,0.00,WUHU216HW,2013-02-04 22:11:00,
2013-02-04 17:16:00,34.7,20.6,29.95,NNW,338,0.2,3.4,56,0.00,,,0.00,WUHU216HW,2013-02-04 22:16:00,
2013-02-04 17:21:00,34.4,20.3,29.95,NNW,338,0.0,3.4,56,0.00,,,0.00,WUHU216HW,2013-02-04 22:21:00,
2013-02-04 17:26:00,34.2,20.1,29.94,NNW,338,0.0,0.2,56,0.00,,,0.00,WUHU216HW,2013-02-04 22:26:00,
2013-02-04 17:31:00,34.0,19.9,29.94,NNW,338,0.0,0.2,56,0.00,,,0.00,WUHU216HW,2013-02-04 22:31:00,
2013-02-04 17:36:00,33.7,19.5,29.94,NNW,338,0.0,0.0,56,0.00,,,0.00,WUHU216HW,2013-02-04 22:36:00,
2013-02-04 17:41:00,33.3,19.2,29.94,NNW,338,0.0,0.0,56,0.00,,,0.00,WUHU216HW,2013-02-04 22:41:00,
2013-02-04 17:46:00,32.9,18.9,29.95,NNW,338,0.0,0.0,56,0.00,,,0.00,WUHU216HW,2013-02-04 22:46:00,
2013-02-04 17:51:00,32.8,19.2,29.94,NNW,338,0.0,0.0,57,0.00,,,0.00,WUHU216HW,2013-02-04 22:51:00,
2013-02-04 17:56:00,32.6,19.0,29.94,NNW,338,0.0,0.0,57,0.00,,,0.00,WUHU216HW,2013-02-04 22:56:00,
2013-02-04 18:01:00,32.6,19.5,29.94,NNW,338,0.2,0.2,58,0.00,,,0.00,WUHU216HW,2013-02-04 23:01:00,
2013-02-04 18:06:00,32.6,19.5,29.94,NNW,338,0.2,0.2,58,0.00,,,0.00,WUHU216HW,2013-02-04 23:06:00,
2013-02-04 18:31:00,33.3,20.5,29.95,NNW,338,0.0,0.0,59,0.00,,,0.00,WUHU216HW,2013-02-04 23:31:00,
2013-02-04 18:36:00,33.3,20.5,29.95,NNW,338,0.0,0.4,59,0.00,,,0.00,WUHU216HW,2013-02-04 23:36:00,
2013-02-04 18:41:00,33.5,20.7,29.95,North,0,0.0,0.4,59,0.00,,,0.00,WUHU216HW,2013-02-04 23:41:00,
2013-02-04 18:46:00,33.5,20.7,29.95,North,0,0.0,0.0,59,0.00,,,0.00,WUHU216HW,2013-02-04 23:46:00,
2013-02-04 18:51:00,33.5,20.7,29.95,North,0,0.0,0.0,59,0.00,,,0.00,WUHU216HW,2013-02-04 23:51:00,
2013-02-04 18:56:00,33.7,20.8,29.94,North,0,0.0,0.0,59,0.00,,,0.00,WUHU216HW,2013-02-04 23:56:00,
2013-02-04 19:01:00,33.7,20.8,29.94,SSW,203,0.0,0.4,59,0.00,,,0.00,WUHU216HW,2013-02-05 00:01:00,
2013-02-04 19:06:00,33.7,20.8,29.95,WSW,248,0.0,0.4,59,0.00,,,0.00,WUHU216HW,2013-02-05 00:06:00,
2013-02-04 19:11:00,33.7,20.8,29.94,North,0,0.0,0.0,59,0.00,,,0.00,WUHU216HW,2013-02-05 00:11:00,
2013-02-04 19:16:00,33.8,21.4,29.94,NNE,23,0.0,0.4,60,0.00,,,0.00,WUHU216HW,2013-02-05 00:16:00,
2013-02-04 19:21:00,34.2,21.8,29.94,NNE,23,0.0,0.4,60,0.00,,,0.00,WUHU216HW,2013-02-05 00:21:00,
2013-02-04 19:26:00,34.2,21.8,29.94,West,270,0.0,0.4,60,0.00,,,0.00,WUHU216HW,2013-02-05 00:26:00,
2013-02-04 19:31:00,34.4,21.5,29.94,NNW,338,0.4,0.9,59,0.00,,,0.00,WUHU216HW,2013-02-05 00:31:00,
2013-02-04 19:36:00,34.6,21.7,29.94,NW,315,0.2,1.1,59,0.00,,,0.00,WUHU216HW,2013-02-05 00:36:00,
2013-02-04 19:41:00,34.6,21.7,29.93,NW,315,0.0,1.1,59,0.00,,,0.00,WUHU216HW,2013-02-05 00:41:00,
2013-02-04 19:46:00,34.6,21.7,29.94,NNW,338,0.7,0.9,59,0.00,,,0.00,WUHU216HW,2013-02-05 00:46:00,
2013-02-04 19:51:00,34.6,21.7,29.93,North,0,0.0,0.9,59,0.00,,,0.00,WUHU216HW,2013-02-05 00:51:00,
2013-02-04 19:56:00,34.6,21.7,29.93,NNW,338,0.2,0.9,59,0.00,,,0.00,WUHU216HW,2013-02-05 00:56:00,
2013-02-04 20:01:00,34.4,21.5,29.93,North,0,0.0,0.4,59,0.00,,,0.00,WUHU216HW,2013-02-05 01:01:00,
2013-02-04 20:06:00,34.4,21.5,29.92,SSE,158,0.2,0.2,59,0.00,,,0.00,WUHU216HW,2013-02-05 01:06:00,
2013-02-04 20:11:00,34.4,21.5,29.92,NE,45,0.0,0.4,59,0.00,,,0.00,WUHU216HW,2013-02-05 01:11:00,
2013-02-04 20:16:00,34.2,21.3,29.92,NNW,338,0.0,0.4,59,0.00,,,0.00,WUHU216HW,2013-02-05 01:16:00,
2013-02-04 20:22:00,34.2,21.3,29.92,NNW,338,0.4,0.7,59,0.00,,,0.00,WUHU216HW,2013-02-05 01:22:00,
2013-02-04 20:27:00,33.8,21.0,29.92,North,0,0.0,0.7,59,0.00,,,0.00,WUHU216HW,2013-02-05 01:27:00,
2013-02-04 20:32:00,33.8,21.0,29.92,North,0,0.0,0.0,59,0.00,,,0.00,WUHU216HW,2013-02-05 01:32:00,
2013-02-04 20:56:00,34.4,22.0,29.92,North,0,0.0,0.0,60,0.00,,,0.00,WUHU216HW,2013-02-05 01:56:00,
2013-02-04 21:01:00,34.4,22.0,29.92,North,0,0.0,0.2,60,0.00,,,0.00,WUHU216HW,2013-02-05 02:01:00,
2013-02-04 21:06:00,34.6,22.5,29.92,NNW,338,0.0,0.2,61,0.00,,,0.00,WUHU216HW,2013-02-05 02:06:00,
2013-02-04 21:11:00,34.7,22.7,29.91,NNW,338,0.0,0.0,61,0.00,,,0.00,WUHU216HW,2013-02-05 02:11:00,
2013-02-04 21:16:00,34.7,22.7,29.92,NNW,338,0.2,0.9,61,0.00,,,0.00,WUHU216HW,2013-02-05 02:16:00,
2013-02-04 21:21:00,34.9,22.5,29.92,SSE,158,0.0,0.9,60,0.00,,,0.00,WUHU216HW,2013-02-05 02:21:00,
2013-02-04 21:26:00,35.1,22.7,29.91,NNW,338,0.0,0.4,60,0.00,,,0.00,WUHU216HW,2013-02-05 02:26:00,
2013-02-04 21:31:00,35.1,22.7,29.91,ENE,68,0.2,0.4,60,0.00,,,0.00,WUHU216HW,2013-02-05 02:31:00,
2013-02-04 21:36:00,35.3,22.9,29.92,NNW,338,0.0,0.4,60,0.00,,,0.00,WUHU216HW,2013-02-05 02:36:00,
2013-02-04 21:41:00,35.3,22.9,29.91,NNW,338,0.2,0.4,60,0.00,,,0.00,WUHU216HW,2013-02-05 02:41:00,
2013-02-04 21:46:00,35.3,22.9,29.91,North,0,0.0,0.9,60,0.00,,,0.00,WUHU216HW,2013-02-05 02:46:00,
2013-02-04 21:52:00,35.5,23.0,29.91,North,0,0.0,0.9,60,0.00,,,0.00,WUHU216HW,2013-02-05 02:52:00,
2013-02-04 21:57:00,35.5,23.0,29.90,NNW,338,0.0,0.7,60,0.00,,,0.00,WUHU216HW,2013-02-05 02:57:00,
2013-02-04 22:02:00,35.5,23.0,29.91,NNW,338,0.0,0.4,60,0.00,,,0.00,WUHU216HW,2013-02-05 03:02:00,
2013-02-04 22:07:00,35.5,23.0,29.91,NNW,338,0.0,1.6,60,0.00,,,0.00,WUHU216HW,2013-02-05 03:07:00,
2013-02-04 22:12:00,35.6,23.2,29.91,NW,315,1.8,2.2,60,0.00,,,0.00,WUHU216HW,2013-02-05 03:12:00,
2013-02-04 22:17:00,35.6,23.2,29.90,North,0,0.9,2.2,60,0.00,,,0.00,WUHU216HW,2013-02-05 03:17:00,
2013-02-04 22:22:00,35.6,23.2,29.90,WSW,248,0.0,1.8,60,0.00,,,0.00,WUHU216HW,2013-02-05 03:22:00,
2013-02-04 22:27:00,35.6,23.2,29.90,NNW,338,0.0,1.8,60,0.00,,,0.00,WUHU216HW,2013-02-05 03:27:00,
2013-02-04 22:32:00,35.8,23.4,29.90,NNW,338,3.4,3.4,60,0.00,,,0.00,WUHU216HW,2013-02-05 03:32:00,
2013-02-04 22:37:00,36.0,23.6,29.89,North,0,0.9,3.4,60,0.00,,,0.00,WUHU216HW,2013-02-05 03:37:00,
2013-02-04 22:42:00,35.8,23.4,29.89,ESE,113,0.0,0.9,60,0.00,,,0.00,WUHU216HW,2013-02-05 03:42:00,
2013-02-04 22:47:00,35.6,23.2,29.89,ESE,113,0.0,0.4,60,0.00,,,0.00,WUHU216HW,2013-02-05 03:47:00,
2013-02-04 22:53:00,35.6,23.6,29.89,NNW,338,0.0,0.4,61,0.00,,,0.00,WUHU216HW,2013-02-05 03:53:00,
2013-02-04 22:58:00,35.6,23.6,29.88,NNW,338,0.4,0.4,61,0.00,,,0.00,WUHU216HW,2013-02-05 03:58:00,
2013-02-04 23:03:00,35.5,23.4,29.88,NNW,338,0.0,0.4,61,0.00,,,0.00,WUHU216HW,2013-02-05 04:03:00,
2013-02-04 23:08:00,35.6,23.6,29.88,South,180,0.0,0.4,61,0.00,,,0.00,WUHU216HW,2013-02-05 04:08:00,
2013-02-04 23:13:00,35.6,23.6,29.88,NNW,338,0.0,0.7,61,0.00,,,0.00,WUHU216HW,2013-02-05 04:13:00,
2013-02-04 23:18:00,35.8,23.8,29.88,North,0,0.0,0.9,61,0.00,,,0.00,WUHU216HW,2013-02-05 04:18:00,
2013-02-04 23:23:00,36.0,24.0,29.88,NW,315,0.4,0.9,61,0.00,,,0.00,WUHU216HW,2013-02-05 04:23:00,
2013-02-04 23:28:00,36.0,24.0,29.88,ESE,113,0.0,0.9,61,0.00,,,0.00,WUHU216HW,2013-02-05 04:28:00,
2013-02-04 23:33:00,36.2,24.0,29.88,North,0,0.0,0.4,61,0.00,,,0.00,WUHU216HW,2013-02-05 04:33:00,
2013-02-04 23:38:00,36.2,24.0,29.88,NNW,338,1.1,1.6,61,0.00,,,0.00,WUHU216HW,2013-02-05 04:38:00,
2013-02-04 23:43:00,36.4,24.2,29.88,NNW,338,0.0,1.6,61,0.00,,,0.00,WUHU216HW,2013-02-05 04:43:00,
2013-02-04 23:48:00,36.4,24.2,29.88,NNW,338,0.9,1.3,61,0.00,,,0.00,WUHU216HW,2013-02-05 04:48:00,
2013-02-04 23:53:00,36.5,24.4,29.88,NNW,338,0.0,0.9,61,0.00,,,0.00,WUHU216HW,2013-02-05 04:53:00,
2013-02-04 23:58:00,36.5,24.4,29.87,NNW,338,0.0,0.9,61,0.00,,,0.00,WUHU216HW,2013-02-05 04:58:00,